Home > Weather > Neubrandenburg > Past weeks

Flag for Germany Weather for the Past 2 Weeks in Neubrandenburg, Mecklenburg-Western Pomerania, Germany

Now
36 °F

Drizzle. Fog.


Feels Like: 30 °F
Forecast: 31 / 40 °F
Wind: 7 mph from West

Location: Laage

Current Time: Feb 12, 2016 at 7:46:26 AM

Latest Report: Feb 12, 2016 at 6:48 AM


Visibility: 3 mi

Pressure: 29.53 "Hg

Humidity: 100%

Dew point: 36 °F

Location of NeubrandenburgLocation

Historic Weather in Neubrandenburg — Graph

°F

Neubrandenburg Temperature Yesterday

Maximum temperature yesterday: 39 °F (at 12:20 AM)
Minimum temperature yesterday: 37 °F (at 8:20 AM)
Average temperature yesterday: 39 °F

High & Low Weather Summary for the Past Weeks

 TemperatureHumidityPressure
High54 °F (Feb 7, 1:20 PM)100% (Jan 30, 5:59 PM)30.18 "Hg (Jan 30, 5:59 PM)
Low32 °F (Feb 5, 2:20 AM)57% (Feb 2, 4:20 PM)28.77 "Hg (Feb 10, 12:20 AM)
Average42 °F84%29.64 "Hg
* Reported Jan 28 6:20 AM — Feb 12 6:20 AM, Neubrandenburg, Weather by CustomWeather, © 2016

Note: Actual official high and low records may vary slightly from our data, if they occured in-between our weather recording intervals... More about our weather records

Advertising

Neubrandenburg Weather History for the Previous 24 Hours

 ConditionsComfort  
Time TempWeatherWind HumidityBarometerVisibility
6:20 AM
Fri, Feb 12
37 °FLight rain. Passing clouds.8 mph93%29.53 "Hg4 mi
5:20 AM36 °FLight rain. Passing clouds.9 mph100%29.53 "Hg4 mi
4:20 AM37 °FLight rain. Fog.6 mph93%29.53 "Hg3 mi
3:20 AM37 °FLight rain. Fog.6 mph93%29.53 "Hg2 mi
2:20 AM37 °FPassing clouds.7 mph93%29.53 "Hg4 mi
1:20 AM37 °FMostly cloudy.6 mph93%29.53 "Hg4 mi
12:20 AM37 °FLight rain. Passing clouds.6 mph100%29.53 "Hg4 mi
11:20 PM
Thu, Feb 11
37 °FPassing clouds.3 mph93%29.53 "Hg6 mi
10:48 PM37 °FRain. Passing clouds.6 mph93%29.53 "Hg5 mi
10:20 PM37 °FRain. Passing clouds.10 mph93%29.53 "Hg6 mi
9:20 PM37 °FPassing clouds.8 mph93%29.53 "HgN/A
8:20 PM37 °FPassing clouds.9 mph93%29.53 "HgN/A
7:20 PM37 °FLight rain. Partly cloudy.13 mph93%29.53 "HgN/A
7:02 PM37 °FRain. Passing clouds.15 mph93%29.53 "HgN/A
6:20 PM39 °FPassing clouds.10 mph93%29.50 "HgN/A
5:20 PM39 °FPassing clouds.10 mph93%29.50 "HgN/A
4:20 PM39 °FDrizzle. Partly sunny.8 mph93%29.50 "Hg6 mi
3:20 PM39 °FPartly sunny.9 mph93%29.47 "HgN/A
2:20 PM39 °FPartly sunny.12 mph93%29.47 "HgN/A
1:20 PM39 °FDrizzle. Partly sunny.10 mph93%29.47 "HgN/A
12:20 PM39 °FPartly sunny.12 mph93%29.47 "HgN/A
11:20 AM39 °FPartly sunny.13 mph93%29.45 "HgN/A
10:20 AM39 °FPartly sunny.8 mph93%29.45 "HgN/A
9:53 AM39 °FPartly sunny.14 mph93%29.42 "Hg4 mi
9:20 AM39 °FDrizzle. Broken clouds.7 mph93%29.42 "Hg4 mi
8:47 AM37 °FDrizzle. Fog.12 mph93%29.42 "Hg3 mi
8:20 AM37 °FDrizzle. Partly sunny.13 mph93%29.42 "Hg4 mi
7:59 AM39 °FPartly sunny.12 mph93%29.39 "HgN/A
7:20 AM39 °FPassing clouds.9 mph100%29.39 "Hg4 mi
Weather by CustomWeather, © 2016

See weather overviewHow to use our weather pages